| time (UTC) | temp F | wind direction | speed knots | gust knots | rain 1hr in | rain 24hr in | rain mn in | humidity % | barometer mb |
| 20260504183046 | 63 | 213 | 9.6 | 17.4 | 0.00 | 0.00 | 0.00 | 43 | 1007.4 |
| 20260504181547 | 62 | 206 | 5.2 | 9.6 | 0.00 | 0.00 | 0.00 | 42 | 1007.8 |
| 20260504180042 | 60 | 246 | 6.1 | 13.0 | 0.00 | 0.00 | 0.00 | 44 | 1007.7 |
| 20260504174539 | 58 | 228 | 6.1 | 15.6 | 0.00 | 0.00 | 0.00 | 45 | 1007.8 |
| 20260504173036 | 58 | 189 | 4.3 | 10.4 | 0.00 | 0.00 | 0.00 | 46 | 1007.9 |
| 20260504171536 | 58 | 223 | 4.3 | 14.8 | 0.00 | 0.00 | 0.00 | 46 | 1007.9 |
| 20260504081517 | 41 | 238 | 1.7 | 4.3 | 0.00 | 0.01 | 0.00 | 65 | 1010.2 |
| 20260504044553 | 36 | 202 | 1.7 | 3.5 | 0.00 | 0.01 | 0.00 | 64 | 1010.1 |
| 20260504043049 | 36 | 191 | 0.9 | 1.7 | 0.00 | 0.01 | 0.00 | 64 | 1010.2 |
| 20260504041546 | 37 | 191 | 0.0 | 1.7 | 0.00 | 0.01 | 0.00 | 61 | 1010.1 |
| 20260504040046 | 38 | 190 | 0.9 | 2.6 | 0.00 | 0.01 | 0.00 | 60 | 1010.1 |
| 20260504034542 | 38 | 5 | 0.9 | 1.7 | 0.00 | 0.01 | 0.01 | 59 | 1010.0 |
| 20260504033050 | 38 | 5 | 0.0 | 2.6 | 0.00 | 0.01 | 0.01 | 57 | 1010.1 |
| 20260504031542 | 39 | 360 | 0.9 | 2.6 | 0.00 | 0.01 | 0.01 | 56 | 1010.1 |
| 20260504030041 | 39 | 9 | 1.7 | 2.6 | 0.00 | 0.01 | 0.01 | 56 | 1010.0 |
| 20260504024554 | 39 | 360 | 1.7 | 2.6 | 0.00 | 0.01 | 0.01 | 56 | 1010.1 |
| 20260504023044 | 39 | 360 | 0.9 | 7.0 | 0.00 | 0.01 | 0.01 | 57 | 1010.2 |
| 20260504021548 | 40 | 329 | 1.7 | 2.6 | 0.00 | 0.01 | 0.01 | 56 | 1010.2 |
| 20260504020046 | 40 | 329 | 0.0 | 1.7 | 0.00 | 0.01 | 0.01 | 54 | 1010.2 |
| 20260504014538 | 40 | 329 | 0.0 | 2.6 | 0.00 | 0.06 | 0.01 | 54 | 1010.1 |
| 20260504013045 | 40 | 252 | 0.0 | 2.6 | 0.00 | 0.06 | 0.01 | 56 | 1010.1 |
| 20260504011540 | 40 | 248 | 0.0 | 1.7 | 0.00 | 0.06 | 0.01 | 55 | 1009.9 |
| 20260504010037 | 40 | 249 | 0.9 | 1.7 | 0.00 | 0.06 | 0.01 | 56 | 1009.9 |
| 20260504004543 | 41 | 248 | 0.0 | 0.0 | 0.00 | 0.06 | 0.01 | 54 | 1009.8 |
| 20260504003035 | 42 | 247 | 0.0 | 0.9 | 0.00 | 0.06 | 0.01 | 53 | 1009.7 |
| 20260504001535 | 43 | 247 | 0.9 | 2.6 | 0.00 | 0.06 | 0.01 | 51 | 1009.5 |
| 20260504000034 | 43 | 242 | 0.0 | 4.3 | 0.00 | 0.06 | 0.01 | 50 | 1009.4 |
| 20260503234534 | 44 | 302 | 1.7 | 6.1 | 0.00 | 0.07 | 0.01 | 49 | 1009.1 |
| 20260503233034 | 44 | 284 | 0.9 | 5.2 | 0.00 | 0.07 | 0.01 | 52 | 1009.0 |
| 20260503231532 | 44 | 260 | 0.9 | 6.1 | 0.00 | 0.07 | 0.01 | 50 | 1008.9 |
| 20260503230032 | 45 | 205 | 1.7 | 7.0 | 0.00 | 0.07 | 0.01 | 49 | 1008.7 |
| 20260503224531 | 45 | 205 | 1.7 | 8.7 | 0.00 | 0.07 | 0.01 | 48 | 1008.7 |
| 20260503223031 | 46 | 167 | 5.2 | 10.4 | 0.00 | 0.07 | 0.01 | 46 | 1008.6 |
| 20260503221530 | 46 | 222 | 5.2 | 15.6 | 0.00 | 0.07 | 0.01 | 44 | 1008.4 |
| 20260503220034 | 46 | 239 | 2.6 | 13.9 | 0.00 | 0.07 | 0.01 | 47 | 1008.5 |
| 20260503214529 | 46 | 165 | 3.5 | 9.6 | 0.00 | 0.08 | 0.01 | 47 | 1008.4 |
| 20260503213029 | 47 | 59 | 4.3 | 11.3 | 0.00 | 0.08 | 0.01 | 45 | 1008.5 |
| 20260503211536 | 46 | 288 | 3.5 | 20.9 | 0.00 | 0.08 | 0.01 | 46 | 1008.5 |
| 20260503210031 | 46 | 175 | 2.6 | 14.8 | 0.00 | 0.08 | 0.01 | 45 | 1008.3 |
| 20260503204525 | 47 | 56 | 4.3 | 11.3 | 0.00 | 0.19 | 0.01 | 44 | 1008.3 |
| 20260503203026 | 47 | 67 | 3.5 | 9.6 | 0.00 | 0.19 | 0.01 | 46 | 1008.2 |
| 20260503201526 | 47 | 298 | 2.6 | 8.7 | 0.00 | 0.19 | 0.01 | 44 | 1008.1 |
| 20260503200025 | 48 | 150 | 3.5 | 10.4 | 0.00 | 0.19 | 0.01 | 45 | 1008.0 |
| 20260503194522 | 47 | 175 | 4.3 | 11.3 | 0.00 | 0.19 | 0.01 | 48 | 1008.1 |
| 20260503193034 | 47 | 30 | 2.6 | 12.2 | 0.00 | 0.19 | 0.01 | 45 | 1008.3 |
| 20260503191520 | 46 | 123 | 1.7 | 11.3 | 0.00 | 0.19 | 0.01 | 45 | 1008.0 |
| 20260503190029 | 48 | 11 | 4.3 | 16.5 | 0.00 | 0.19 | 0.01 | 46 | 1008.1 |
| 20260503184519 | 48 | 65 | 3.5 | 10.4 | 0.00 | 0.20 | 0.01 | 49 | 1008.1 |